Location: Fort Wayne
(41.1310°N, 85.1290°W)
Time: 19:06:03
(UTC-04:00)

Oscar 19 - Visible Passes

Search period start: 04 May 2016 00:00
Search period end: 14 May 2016 00:00
Orbit: 775 x 790 km, 98.5° (Epoch: 04 May)

Date Brightness Start Highest point End Pass type
(mag) Time Alt. Az. Time Alt. Az. Time Alt. Az.
04 May 10.6 03:17:18 10° NNE 03:22:18 82° NNE 03:22:18 82° NNE visible
04 May 12.7 04:58:58 10° NW 05:01:05 12° WNW 05:02:52 11° W visible
05 May 11.5 02:45:43 10° NNE 02:50:13 43° E 02:50:13 43° E visible
05 May 12.0 04:25:41 10° NNW 04:29:44 23° WNW 04:30:47 22° W visible
06 May 12.4 02:14:39 10° NE 02:18:07 22° E 02:18:07 22° E visible
06 May 11.1 03:53:17 10° N 03:58:13 43° WNW 03:58:41 42° W visible
07 May 13.1 01:45:11 10° ENE 01:46:01 11° E 01:46:01 11° E visible
07 May 10.5 03:21:18 10° NNE 03:26:32 85° WNW 03:26:35 85° W visible
07 May 12.8 05:03:23 10° NW 05:05:01 11° WNW 05:06:40 10° WNW visible
08 May 11.2 02:49:40 10° NNE 02:54:29 48° E 02:54:29 48° E visible
08 May 12.1 04:29:48 10° NNW 04:33:41 22° WNW 04:35:03 19° W visible
09 May 12.3 02:18:31 10° NE 02:22:23 24° E 02:22:23 24° E visible
09 May 11.3 03:57:21 10° N 04:02:11 40° WNW 04:02:57 38° W visible
10 May 13.0 01:48:36 10° ENE 01:50:17 12° E 01:50:17 12° E visible
10 May 10.5 03:25:19 10° N 03:30:32 78° WNW 03:30:51 75° WSW visible
10 May 12.8 05:08:01 10° NW 05:08:57 10° WNW 05:09:53 10° WNW visible
11 May 11.0 02:53:38 10° NNE 02:58:44 53° E 02:58:45 53° E visible
11 May 12.2 04:33:56 10° NNW 04:37:38 20° WNW 04:39:19 17° W visible
12 May 12.1 02:22:24 10° NE 02:26:38 27° E 02:26:38 27° E visible
12 May 11.4 04:01:25 10° N 04:06:09 37° WNW 04:07:12 33° W visible
13 May 12.9 01:52:11 10° ENE 01:54:32 13° E 01:54:32 13° E visible
13 May 10.5 03:29:20 10° N 03:34:31 72° WNW 03:35:06 65° WSW visible
